Year,Month,Day,Hour,Minute,Value (Times are PST for barometer in hPa)
2011,11,21,00,00,1008.67
2011,11,21,00,01,1008.70
2011,11,21,00,02,1008.67
2011,11,21,00,03,1008.67
2011,11,21,00,04,1008.65
2011,11,21,00,05,1008.74
2011,11,21,00,06,1008.74
2011,11,21,00,07,1008.77
2011,11,21,00,08,1008.74
2011,11,21,00,09,1008.74
2011,11,21,00,10,1008.74
2011,11,21,00,11,1008.77
2011,11,21,00,12,1008.74
2011,11,21,00,13,1008.74
2011,11,21,00,14,1008.74
2011,11,21,00,15,1008.81
2011,11,21,00,16,1008.77
2011,11,21,00,17,1008.81
2011,11,21,00,18,1008.84
2011,11,21,00,19,1008.81
2011,11,21,00,20,1008.74
2011,11,21,00,21,1008.74
2011,11,21,00,22,1008.70
2011,11,21,00,23,1008.67
2011,11,21,00,24,1008.66
2011,11,21,00,25,1008.57
2011,11,21,00,26,1008.50
2011,11,21,00,27,1008.49
2011,11,21,00,28,1008.37
2011,11,21,00,29,1008.33
2011,11,21,00,30,1008.23
2011,11,21,00,31,1008.13
2011,11,21,00,32,1008.06
2011,11,21,00,33,1007.99
2011,11,21,00,34,1007.99
2011,11,21,00,35,1008.03
2011,11,21,00,36,1008.03
2011,11,21,00,37,1008.03
2011,11,21,00,38,1008.03
2011,11,21,00,39,1008.06
2011,11,21,00,40,1008.03
2011,11,21,00,41,1008.06
2011,11,21,00,42,1008.06
2011,11,21,00,43,1008.03
2011,11,21,00,44,1007.99
2011,11,21,00,45,1008.06
2011,11,21,00,46,1008.09
2011,11,21,00,47,1008.06
2011,11,21,00,48,1008.03
2011,11,21,00,49,1007.96
2011,11,21,00,50,1007.93
2011,11,21,00,51,1007.89
2011,11,21,00,52,1007.89
2011,11,21,00,53,1007.79
2011,11,21,00,54,1007.76
2011,11,21,00,55,1007.76
2011,11,21,00,56,1007.72
2011,11,21,00,57,1007.79
2011,11,21,00,58,1007.89
2011,11,21,00,59,1007.93
2011,11,21,01,00,1007.96
2011,11,21,01,01,1007.92
2011,11,21,01,02,1007.82
2011,11,21,01,03,1007.69
2011,11,21,01,04,1007.61
2011,11,21,01,05,1007.48
2011,11,21,01,06,1007.53
2011,11,21,01,07,1007.62
2011,11,21,01,08,1007.69
2011,11,21,01,09,1007.72
2011,11,21,01,10,1007.76
2011,11,21,01,11,1007.82
2011,11,21,01,12,1007.86
2011,11,21,01,13,1007.89
2011,11,21,01,14,1007.89
2011,11,21,01,15,1007.85
2011,11,21,01,16,1007.76
2011,11,21,01,17,1007.72
2011,11,21,01,18,1007.69
2011,11,21,01,19,1007.69
2011,11,21,01,20,1007.72
2011,11,21,01,21,1007.72
2011,11,21,01,22,1007.65
2011,11,21,01,23,1007.62
2011,11,21,01,24,1007.65
2011,11,21,01,25,1007.69
2011,11,21,01,26,1007.79
2011,11,21,01,27,1007.79
2011,11,21,01,28,1007.76
2011,11,21,01,29,1007.69
2011,11,21,01,30,1007.65
2011,11,21,01,31,1007.65
2011,11,21,01,32,1007.62
2011,11,21,01,33,1007.62
2011,11,21,01,34,1007.62
2011,11,21,01,35,1007.59
2011,11,21,01,36,1007.51
2011,11,21,01,37,1007.38
2011,11,21,01,38,1007.38
2011,11,21,01,39,1007.35
2011,11,21,01,40,1007.32
2011,11,21,01,41,1007.35
2011,11,21,01,42,1007.35
2011,11,21,01,43,1007.35
2011,11,21,01,44,1007.20
2011,11,21,01,45,1007.07
2011,11,21,01,46,1006.84
2011,11,21,01,47,1006.81
2011,11,21,01,48,1006.81
2011,11,21,01,49,1006.88
2011,11,21,01,50,1006.74
2011,11,21,01,51,1006.60
2011,11,21,01,52,1006.50
2011,11,21,01,53,1006.47
2011,11,21,01,54,1006.47
2011,11,21,01,55,1006.47
2011,11,21,01,56,1006.44
2011,11,21,01,57,1006.40
2011,11,21,01,58,1006.37
2011,11,21,01,59,1006.37
2011,11,21,02,00,1006.44
2011,11,21,02,01,1006.44
2011,11,21,02,02,1006.44
2011,11,21,02,03,1006.40
2011,11,21,02,04,1006.47
2011,11,21,02,05,1006.44
2011,11,21,02,06,1006.44
2011,11,21,02,07,1006.33
2011,11,21,02,08,1006.20
2011,11,21,02,09,1006.10
2011,11,21,02,10,1006.06
2011,11,21,02,11,1005.99
2011,11,21,02,12,1006.06
2011,11,21,02,13,1006.13
2011,11,21,02,14,1006.20
2011,11,21,02,15,1006.13
2011,11,21,02,16,1006.13
2011,11,21,02,17,1006.13
2011,11,21,02,18,1006.13
2011,11,21,02,19,1006.03
2011,11,21,02,20,1005.96
2011,11,21,02,21,1005.96
2011,11,21,02,22,1005.99
2011,11,21,02,23,1006.06
2011,11,21,02,24,1006.10
2011,11,21,02,25,1006.03
2011,11,21,02,26,1005.96
2011,11,21,02,27,1005.89
2011,11,21,02,28,1005.89
2011,11,21,02,29,1005.93
2011,11,21,02,30,1005.89
2011,11,21,02,31,1005.79
2011,11,21,02,32,1005.72
2011,11,21,02,33,1005.69
2011,11,21,02,34,1005.62
2011,11,21,02,35,1005.55
2011,11,21,02,36,1005.51
2011,11,21,02,37,1005.39
2011,11,21,02,38,1005.32
2011,11,21,02,39,1005.28
2011,11,21,02,40,1005.18
2011,11,21,02,41,1005.15
2011,11,21,02,42,1005.11
2011,11,21,02,43,1005.05
2011,11,21,02,44,1005.01
2011,11,21,02,45,1004.91
2011,11,21,02,46,1004.84
2011,11,21,02,47,1004.78
2011,11,21,02,48,1004.74
2011,11,21,02,49,1004.71
2011,11,21,02,50,1004.74
2011,11,21,02,51,1004.74
2011,11,21,02,52,1004.71
2011,11,21,02,53,1004.78
2011,11,21,02,54,1004.71
2011,11,21,02,55,1004.74
2011,11,21,02,56,1004.71
2011,11,21,02,57,1004.64
2011,11,21,02,58,1004.54
2011,11,21,02,59,1004.50
2011,11,21,03,00,1004.40
2011,11,21,03,01,1004.37
2011,11,21,03,02,1004.40
2011,11,21,03,03,1004.34
2011,11,21,03,04,1004.47
2011,11,21,03,05,1004.37
2011,11,21,03,06,1004.34
2011,11,21,03,07,1004.30
2011,11,21,03,08,1004.23
2011,11,21,03,09,1004.17
2011,11,21,03,10,1004.13
2011,11,21,03,11,1004.10
2011,11,21,03,12,1004.10
2011,11,21,03,13,1004.03
2011,11,21,03,14,1004.06
2011,11,21,03,15,1004.00
2011,11,21,03,16,1003.93
2011,11,21,03,17,1003.96
2011,11,21,03,18,1003.96
2011,11,21,03,19,1003.86
2011,11,21,03,20,1003.79
2011,11,21,03,21,1003.62
2011,11,21,03,22,1003.62
2011,11,21,03,23,1003.66
2011,11,21,03,24,1003.66
2011,11,21,03,25,1003.56
2011,11,21,03,26,1003.46
2011,11,21,03,27,1003.42
2011,11,21,03,28,1003.42
2011,11,21,03,29,1003.49
2011,11,21,03,30,1003.35
2011,11,21,03,31,1003.25
2011,11,21,03,32,1003.25
2011,11,21,03,33,1003.29
2011,11,21,03,34,1003.32
2011,11,21,03,35,1003.39
2011,11,21,03,36,1003.35
2011,11,21,03,37,1003.32
2011,11,21,03,38,1003.35
2011,11,21,03,39,1003.39
2011,11,21,03,40,1003.32
2011,11,21,03,41,1003.42
2011,11,21,03,42,1003.42
2011,11,21,03,43,1003.39
2011,11,21,03,44,1003.32
2011,11,21,03,45,1003.29
2011,11,21,03,46,1003.32
2011,11,21,03,47,1003.32
2011,11,21,03,48,1003.25
2011,11,21,03,49,1003.22
2011,11,21,03,50,1003.01
2011,11,21,03,51,1002.98
2011,11,21,03,52,1002.91
2011,11,21,03,53,1002.95
2011,11,21,03,54,1002.88
2011,11,21,03,55,1002.74
2011,11,21,03,56,1002.54
2011,11,21,03,57,1002.54
2011,11,21,03,58,1002.61
2011,11,21,03,59,1002.64
2011,11,21,04,00,1002.81
2011,11,21,04,01,1002.81
2011,11,21,04,02,1002.78
2011,11,21,04,03,1002.61
2011,11,21,04,04,1002.44
2011,11,21,04,05,1002.34
2011,11,21,04,06,1002.41
2011,11,21,04,07,1002.47
2011,11,21,04,08,1002.47
2011,11,21,04,09,1002.27
2011,11,21,04,10,1002.13
2011,11,21,04,11,1002.17
2011,11,21,04,12,1002.24
2011,11,21,04,13,1002.37
2011,11,21,04,14,1002.34
2011,11,21,04,15,1002.07
2011,11,21,04,16,1001.83
2011,11,21,04,17,1001.73
2011,11,21,04,18,1001.83
2011,11,21,04,19,1002.00
2011,11,21,04,20,1001.83
2011,11,21,04,21,1001.73
2011,11,21,04,22,1001.83
2011,11,21,04,23,1001.86
2011,11,21,04,24,1001.83
2011,11,21,04,25,1001.80
2011,11,21,04,26,1001.76
2011,11,21,04,27,1001.83
2011,11,21,04,28,1001.84
2011,11,21,04,29,1001.56
2011,11,21,04,30,1001.39
2011,11,21,04,31,1001.46
2011,11,21,04,32,1001.52
2011,11,21,04,33,1001.59
2011,11,21,04,34,1001.49
2011,11,21,04,35,1001.46
2011,11,21,04,36,1001.46
2011,11,21,04,37,1001.39
2011,11,21,04,38,1001.25
2011,11,21,04,39,1001.29
2011,11,21,04,40,1001.32
2011,11,21,04,41,1001.32
2011,11,21,04,42,1001.42
2011,11,21,04,43,1001.56
2011,11,21,04,44,1001.49
2011,11,21,04,45,1001.29
2011,11,21,04,46,1001.15
2011,11,21,04,47,1001.12
2011,11,21,04,48,1001.15
2011,11,21,04,49,1001.22
2011,11,21,04,50,1001.15
2011,11,21,04,51,1001.15
2011,11,21,04,52,1001.08
2011,11,21,04,53,1001.08
2011,11,21,04,54,1001.12
2011,11,21,04,55,1001.25
2011,11,21,04,56,1001.12
2011,11,21,04,57,1001.15
2011,11,21,04,58,1001.08
2011,11,21,04,59,1001.08
2011,11,21,05,00,1001.22
2011,11,21,05,01,1001.19
2011,11,21,05,02,1001.08
2011,11,21,05,03,1001.08
2011,11,21,05,04,1001.19
2011,11,21,05,05,1001.19
2011,11,21,05,06,1001.12
2011,11,21,05,07,1001.25
2011,11,21,05,08,1001.29
2011,11,21,05,09,1001.29
2011,11,21,05,10,1001.22
2011,11,21,05,11,1001.19
2011,11,21,05,12,1001.15
2011,11,21,05,13,1001.29
2011,11,21,05,14,1001.39
2011,11,21,05,15,1001.46
2011,11,21,05,16,1001.56
2011,11,21,05,17,1001.66
2011,11,21,05,18,1001.63
2011,11,21,05,19,1001.49
2011,11,21,05,20,1001.59
2011,11,21,05,21,1001.76
2011,11,21,05,22,1001.76
2011,11,21,05,23,1001.66
2011,11,21,05,24,1001.73
2011,11,21,05,25,1001.69
2011,11,21,05,26,1001.69
2011,11,21,05,27,1001.73
2011,11,21,05,28,1001.76
2011,11,21,05,29,1001.76
2011,11,21,05,30,1001.73
2011,11,21,05,31,1001.66
2011,11,21,05,32,1001.56
2011,11,21,05,33,1001.52
2011,11,21,05,34,1001.52
2011,11,21,05,35,1001.59
2011,11,21,05,36,1001.52
2011,11,21,05,37,1001.49
2011,11,21,05,38,1001.39
2011,11,21,05,39,1001.36
2011,11,21,05,40,1001.39
2011,11,21,05,41,1001.36
2011,11,21,05,42,1001.39
2011,11,21,05,43,1001.42
2011,11,21,05,44,1001.42
2011,11,21,05,45,1001.42
2011,11,21,05,46,1001.39
2011,11,21,05,47,1001.42
2011,11,21,05,48,1001.42
2011,11,21,05,49,1001.39
2011,11,21,05,50,1001.32
2011,11,21,05,51,1001.36
2011,11,21,05,52,1001.39
2011,11,21,05,53,1001.42
2011,11,21,05,54,1001.46
2011,11,21,05,55,1001.46
2011,11,21,05,56,1001.42
2011,11,21,05,57,1001.39
2011,11,21,05,58,1001.25
2011,11,21,05,59,1001.29
2011,11,21,06,00,1001.29
2011,11,21,06,01,1001.29
2011,11,21,06,02,1001.29
2011,11,21,06,03,1001.29
2011,11,21,06,04,1001.39
2011,11,21,06,05,1001.39
2011,11,21,06,06,1001.32
2011,11,21,06,07,1001.32
2011,11,21,06,08,1001.36
2011,11,21,06,09,1001.32
2011,11,21,06,10,1001.36
2011,11,21,06,11,1001.36
2011,11,21,06,12,1001.36
2011,11,21,06,13,1001.36
2011,11,21,06,14,1001.32
2011,11,21,06,15,1001.36
2011,11,21,06,16,1001.32
2011,11,21,06,17,1001.32
2011,11,21,06,18,1001.32
2011,11,21,06,19,1001.39
2011,11,21,06,20,1001.39
2011,11,21,06,21,1001.42
2011,11,21,06,22,1001.46
2011,11,21,06,23,1001.39
2011,11,21,06,24,1001.42
2011,11,21,06,25,1001.39
2011,11,21,06,26,1001.36
2011,11,21,06,27,1001.39
2011,11,21,06,28,1001.29
2011,11,21,06,29,1001.22
2011,11,21,06,30,1001.25
2011,11,21,06,31,1001.32
2011,11,21,06,32,1001.25
2011,11,21,06,33,1001.25
2011,11,21,06,34,1001.25
2011,11,21,06,35,1001.25
2011,11,21,06,36,1001.25
2011,11,21,06,37,1001.22
2011,11,21,06,38,1001.22
2011,11,21,06,39,1001.29
2011,11,21,06,40,1001.29
2011,11,21,06,41,1001.32
2011,11,21,06,42,1001.36
2011,11,21,06,43,1001.39
2011,11,21,06,44,1001.39
2011,11,21,06,45,1001.39
2011,11,21,06,46,1001.42
2011,11,21,06,47,1001.42
2011,11,21,06,48,1001.56
2011,11,21,06,49,1001.59
2011,11,21,06,50,1001.63
2011,11,21,06,51,1001.73
2011,11,21,06,52,1001.80
2011,11,21,06,53,1001.80
2011,11,21,06,54,1001.80
2011,11,21,06,55,1001.86
2011,11,21,06,56,1001.97
2011,11,21,06,57,1001.93
2011,11,21,06,58,1002.00
2011,11,21,06,59,1002.00
2011,11,21,07,00,1001.97
2011,11,21,07,01,1002.00
2011,11,21,07,02,1002.00
2011,11,21,07,03,1002.03
2011,11,21,07,04,1002.07
2011,11,21,07,05,1002.07
2011,11,21,07,06,1002.13
2011,11,21,07,07,1002.20
2011,11,21,07,08,1002.24
2011,11,21,07,09,1002.27
2011,11,21,07,10,1002.34
2011,11,21,07,11,1002.34
2011,11,21,07,12,1002.34
2011,11,21,07,13,1002.34
2011,11,21,07,14,1002.44
2011,11,21,07,15,1002.47
2011,11,21,07,16,1002.51
2011,11,21,07,17,1002.47
2011,11,21,07,18,1002.44
2011,11,21,07,19,1002.44
2011,11,21,07,20,1002.41
2011,11,21,07,21,1002.44
2011,11,21,07,22,1002.44
2011,11,21,07,23,1002.37
2011,11,21,07,24,1002.44
2011,11,21,07,25,1002.44
2011,11,21,07,26,1002.44
2011,11,21,07,27,1002.44
2011,11,21,07,28,1002.47
2011,11,21,07,29,1002.47
2011,11,21,07,30,1002.51
2011,11,21,07,31,1002.47
2011,11,21,07,32,1002.47
2011,11,21,07,33,1002.51
2011,11,21,07,34,1002.51
2011,11,21,07,35,1002.51
2011,11,21,07,36,1002.54
2011,11,21,07,37,1002.57
2011,11,21,07,38,1002.61
2011,11,21,07,39,1002.61
2011,11,21,07,40,1002.64
2011,11,21,07,41,1002.64
2011,11,21,07,42,1002.64
2011,11,21,07,43,1002.68
2011,11,21,07,44,1002.74
2011,11,21,07,45,1002.74
2011,11,21,07,46,1002.74
2011,11,21,07,47,1002.71
2011,11,21,07,48,1002.71
2011,11,21,07,49,1002.71
2011,11,21,07,50,1002.85
2011,11,21,07,51,1002.85
2011,11,21,07,52,1002.88
2011,11,21,07,53,1002.95
2011,11,21,07,54,1002.95
2011,11,21,07,55,1002.98
2011,11,21,07,56,1003.05
2011,11,21,07,57,1003.08
2011,11,21,07,58,1003.05
2011,11,21,07,59,1003.12
2011,11,21,08,00,1003.15
2011,11,21,08,01,1003.08
2011,11,21,08,02,1003.08
2011,11,21,08,03,1003.08
2011,11,21,08,04,1003.18
2011,11,21,08,05,1003.22
2011,11,21,08,06,1003.32
2011,11,21,08,07,1003.29
2011,11,21,08,08,1003.32
2011,11,21,08,09,1003.35
2011,11,21,08,10,1003.39
2011,11,21,08,11,1003.35
2011,11,21,08,12,1003.25
2011,11,21,08,13,1003.22
2011,11,21,08,14,1003.15
2011,11,21,08,15,1003.18
2011,11,21,08,16,1003.25
2011,11,21,08,17,1003.32
2011,11,21,08,18,1003.25
2011,11,21,08,19,1003.18
2011,11,21,08,20,1003.22
2011,11,21,08,21,1003.25
2011,11,21,08,22,1003.25
2011,11,21,08,23,1003.29
2011,11,21,08,24,1003.32
2011,11,21,08,25,1003.35
2011,11,21,08,26,1003.35
2011,11,21,08,27,1003.35
2011,11,21,08,28,1003.42
2011,11,21,08,29,1003.49
2011,11,21,08,30,1003.49
2011,11,21,08,31,1003.46
2011,11,21,08,32,1003.46
2011,11,21,08,33,1003.46
2011,11,21,08,34,1003.49
2011,11,21,08,35,1003.66
2011,11,21,08,36,1003.69
2011,11,21,08,37,1003.73
2011,11,21,08,38,1003.76
2011,11,21,08,39,1003.76
2011,11,21,08,40,1003.79
2011,11,21,08,41,1003.79
2011,11,21,08,42,1003.89
2011,11,21,08,43,1003.93
2011,11,21,08,44,1004.00
2011,11,21,08,45,1004.00
2011,11,21,08,46,1004.00
2011,11,21,08,47,1004.00
2011,11,21,08,48,1003.93
2011,11,21,08,49,1004.03
2011,11,21,08,50,1004.06
2011,11,21,08,51,1004.03
2011,11,21,08,52,1004.03
2011,11,21,08,53,1004.03
2011,11,21,08,54,1004.03
2011,11,21,08,55,1004.10
2011,11,21,08,56,1004.13
2011,11,21,08,57,1004.17
2011,11,21,08,58,1004.13
2011,11,21,08,59,1004.17
2011,11,21,09,00,1004.23
2011,11,21,09,01,1004.27
2011,11,21,09,02,1004.30
2011,11,21,09,03,1004.30
2011,11,21,09,04,1004.37
2011,11,21,09,05,1004.30
2011,11,21,09,06,1004.30
2011,11,21,09,07,1004.27
2011,11,21,09,08,1004.27
2011,11,21,09,09,1004.27
2011,11,21,09,10,1004.34
2011,11,21,09,11,1004.40
2011,11,21,09,12,1004.40
2011,11,21,09,13,1004.44
2011,11,21,09,14,1004.40
2011,11,21,09,15,1004.47
2011,11,21,09,16,1004.47
2011,11,21,09,17,1004.50
2011,11,21,09,18,1004.54
2011,11,21,09,19,1004.57
2011,11,21,09,20,1004.54
2011,11,21,09,21,1004.54
2011,11,21,09,22,1004.47
2011,11,21,09,23,1004.50
2011,11,21,09,24,1004.54
2011,11,21,09,25,1004.61
2011,11,21,09,26,1004.57
2011,11,21,09,27,1004.61
2011,11,21,09,28,1004.67
2011,11,21,09,29,1004.67
2011,11,21,09,30,1004.74
2011,11,21,09,31,1004.81
2011,11,21,09,32,1004.81
2011,11,21,09,33,1004.71
2011,11,21,09,34,1004.67
2011,11,21,09,35,1004.71
2011,11,21,09,36,1004.71
2011,11,21,09,37,1004.67
2011,11,21,09,38,1004.74
2011,11,21,09,39,1004.78
2011,11,21,09,40,1004.78
2011,11,21,09,41,1004.88
2011,11,21,09,42,1004.81
2011,11,21,09,43,1004.84
2011,11,21,09,44,1004.84
2011,11,21,09,45,1004.84
2011,11,21,09,46,1004.84
2011,11,21,09,47,1004.81
2011,11,21,09,48,1004.81
2011,11,21,09,49,1004.78
2011,11,21,09,50,1004.81
2011,11,21,09,51,1004.88
2011,11,21,09,52,1004.91
2011,11,21,09,53,1004.95
2011,11,21,09,54,1004.95
2011,11,21,09,55,1004.98
2011,11,21,09,56,1004.98
2011,11,21,09,57,1004.95
2011,11,21,09,58,1004.91
2011,11,21,09,59,1004.91
2011,11,21,10,00,1004.91
2011,11,21,10,01,1005.05
2011,11,21,10,02,1005.11
2011,11,21,10,03,1005.11
2011,11,21,10,04,1005.08
2011,11,21,10,05,1005.05
2011,11,21,10,06,1005.11
2011,11,21,10,07,1005.11
2011,11,21,10,08,1005.15
2011,11,21,10,09,1005.15
2011,11,21,10,10,1005.18
2011,11,21,10,11,1005.22
2011,11,21,10,12,1005.22
2011,11,21,10,13,1005.28
2011,11,21,10,14,1005.28
2011,11,21,10,15,1005.32
2011,11,21,10,16,1005.35
2011,11,21,10,17,1005.32
2011,11,21,10,18,1005.32
2011,11,21,10,19,1005.28
2011,11,21,10,20,1005.32
2011,11,21,10,21,1005.39
2011,11,21,10,22,1005.25
2011,11,21,10,23,1005.15
2011,11,21,10,24,1005.27
2011,11,21,10,25,1005.25
2011,11,21,10,26,1005.15
2011,11,21,10,27,1005.05
2011,11,21,10,28,1005.25
2011,11,21,10,29,1005.32
2011,11,21,10,30,1005.35
2011,11,21,10,31,1005.32
2011,11,21,10,32,1005.39
2011,11,21,10,33,1005.42
2011,11,21,10,34,1005.45
2011,11,21,10,35,1005.52
2011,11,21,10,36,1005.52
2011,11,21,10,37,1005.49
2011,11,21,10,38,1005.52
2011,11,21,10,39,1005.52
2011,11,21,10,40,1005.59
2011,11,21,10,41,1005.59
2011,11,21,10,42,1005.62
2011,11,21,10,43,1005.62
2011,11,21,10,44,1005.66
2011,11,21,10,45,1005.69
2011,11,21,10,46,1005.66
2011,11,21,10,47,1005.72
2011,11,21,10,48,1005.72
2011,11,21,10,49,1005.69
2011,11,21,10,50,1005.72
2011,11,21,10,51,1005.72
2011,11,21,10,52,1005.76
2011,11,21,10,53,1005.76
2011,11,21,10,54,1005.72
2011,11,21,10,55,1005.76
2011,11,21,10,56,1005.72
2011,11,21,10,57,1005.72
2011,11,21,10,58,1005.76
2011,11,21,10,59,1005.76
2011,11,21,11,00,1005.76
2011,11,21,11,01,1005.76
2011,11,21,11,02,1005.72
2011,11,21,11,03,1005.69
2011,11,21,11,04,1005.72
2011,11,21,11,05,1005.69
2011,11,21,11,06,1005.72
2011,11,21,11,07,1005.72
2011,11,21,11,08,1005.69
2011,11,21,11,09,1005.66
2011,11,21,11,10,1005.72
2011,11,21,11,11,1005.69
2011,11,21,11,12,1005.72
2011,11,21,11,13,1005.76
2011,11,21,11,14,1005.72
2011,11,21,11,15,1005.69
2011,11,21,11,16,1005.76
2011,11,21,11,17,1005.76
2011,11,21,11,18,1005.79
2011,11,21,11,19,1005.83
2011,11,21,11,20,1005.79
2011,11,21,11,21,1005.83
2011,11,21,11,22,1005.83
2011,11,21,11,23,1005.86
2011,11,21,11,24,1005.89
2011,11,21,11,25,1005.86
2011,11,21,11,26,1005.86
2011,11,21,11,27,1005.86
2011,11,21,11,28,1005.86
2011,11,21,11,29,1005.89
2011,11,21,11,30,1005.93
2011,11,21,11,31,1005.96
2011,11,21,11,32,1005.96
2011,11,21,11,33,1005.93
2011,11,21,11,34,1005.93
2011,11,21,11,35,1005.93
2011,11,21,11,36,1005.89
2011,11,21,11,37,1005.89
2011,11,21,11,38,1005.89
2011,11,21,11,39,1005.89
2011,11,21,11,40,1005.83
2011,11,21,11,41,1005.89
2011,11,21,11,42,1005.96
2011,11,21,11,43,1005.93
2011,11,21,11,44,1005.93
2011,11,21,11,45,1005.86
2011,11,21,11,46,1005.89
2011,11,21,11,47,1005.83
2011,11,21,11,48,1005.83
2011,11,21,11,49,1005.83
2011,11,21,11,50,1005.86
2011,11,21,11,51,1005.89
2011,11,21,11,52,1005.89
2011,11,21,11,53,1005.89
2011,11,21,11,54,1005.86
2011,11,21,11,55,1005.86
2011,11,21,11,56,1005.83
2011,11,21,11,57,1005.86
2011,11,21,11,58,1005.86
2011,11,21,11,59,1005.86
2011,11,21,12,00,1005.89
2011,11,21,12,01,1005.86
2011,11,21,12,02,1005.86
2011,11,21,12,03,1005.83
2011,11,21,12,04,1005.86
2011,11,21,12,05,1005.83
2011,11,21,12,06,1005.86
2011,11,21,12,07,1005.86
2011,11,21,12,08,1005.89
2011,11,21,12,09,1005.89
2011,11,21,12,10,1005.89
2011,11,21,12,11,1005.93
2011,11,21,12,12,1005.93
2011,11,21,12,13,1005.96
2011,11,21,12,14,1005.93
2011,11,21,12,15,1005.96
2011,11,21,12,16,1005.93
2011,11,21,12,17,1005.93
2011,11,21,12,18,1005.96
2011,11,21,12,19,1005.96
2011,11,21,12,20,1005.96
2011,11,21,12,21,1005.99
2011,11,21,12,22,1005.96
2011,11,21,12,23,1005.96
2011,11,21,12,24,1005.96
2011,11,21,12,25,1005.99
2011,11,21,12,26,1005.96
2011,11,21,12,27,1006.06
2011,11,21,12,28,1005.99
2011,11,21,12,29,1005.99
2011,11,21,12,30,1005.96
2011,11,21,12,31,1005.96
2011,11,21,12,32,1005.89
2011,11,21,12,33,1005.89
2011,11,21,12,34,1005.93
2011,11,21,12,35,1005.93
2011,11,21,12,36,1005.93
2011,11,21,12,37,1005.96
2011,11,21,12,38,1005.89
2011,11,21,12,39,1005.89
2011,11,21,12,40,1005.89
2011,11,21,12,41,1005.89
2011,11,21,12,42,1005.86
2011,11,21,12,43,1005.86
2011,11,21,12,44,1005.86
2011,11,21,12,45,1005.86
2011,11,21,12,46,1005.86
2011,11,21,12,47,1005.83
2011,11,21,12,48,1005.79
2011,11,21,12,49,1005.79
2011,11,21,12,50,1005.79
2011,11,21,12,51,1005.72
2011,11,21,12,52,1005.72
2011,11,21,12,53,1005.72
2011,11,21,12,54,1005.76
2011,11,21,12,55,1005.69
2011,11,21,12,56,1005.66
2011,11,21,12,57,1005.62
2011,11,21,12,58,1005.62
2011,11,21,12,59,1005.62
2011,11,21,13,00,1005.59
2011,11,21,13,01,1005.62
2011,11,21,13,02,1005.62
2011,11,21,13,03,1005.62
2011,11,21,13,04,1005.66
2011,11,21,13,05,1005.66
2011,11,21,13,06,1005.69
2011,11,21,13,07,1005.72
2011,11,21,13,08,1005.72
2011,11,21,13,09,1005.69
2011,11,21,13,10,1005.72
2011,11,21,13,11,1005.76
2011,11,21,13,12,1005.76
2011,11,21,13,13,1005.79
2011,11,21,13,14,1005.79
2011,11,21,13,15,1005.79
2011,11,21,13,16,1005.79
2011,11,21,13,17,1005.76
2011,11,21,13,18,1005.76
2011,11,21,13,19,1005.76
2011,11,21,13,20,1005.76
2011,11,21,13,21,1005.83
2011,11,21,13,22,1005.89
2011,11,21,13,23,1005.93
2011,11,21,13,24,1005.86
2011,11,21,13,25,1005.83
2011,11,21,13,26,1005.86
2011,11,21,13,27,1005.79
2011,11,21,13,28,1005.79
2011,11,21,13,29,1005.79
2011,11,21,13,30,1005.76
2011,11,21,13,31,1005.85
2011,11,21,13,32,1005.86
2011,11,21,13,33,1005.86
2011,11,21,13,34,1005.89
2011,11,21,13,35,1005.93
2011,11,21,13,36,1005.96
2011,11,21,13,37,1005.96
2011,11,21,13,38,1005.93
2011,11,21,13,39,1005.93
2011,11,21,13,40,1005.96
2011,11,21,13,41,1005.99
2011,11,21,13,42,1005.99
2011,11,21,13,43,1005.99
2011,11,21,13,44,1006.03
2011,11,21,13,45,1006.06
2011,11,21,13,46,1006.06
2011,11,21,13,47,1006.03
2011,11,21,13,48,1005.96
2011,11,21,13,49,1005.89
2011,11,21,13,50,1005.89
2011,11,21,13,51,1005.93
2011,11,21,13,52,1005.96
2011,11,21,13,53,1005.96
2011,11,21,13,54,1005.96
2011,11,21,13,55,1005.96
2011,11,21,13,56,1006.03
2011,11,21,13,57,1006.10
2011,11,21,13,58,1006.10
2011,11,21,13,59,1006.10
2011,11,21,14,00,1006.10
2011,11,21,14,01,1006.03
2011,11,21,14,02,1006.03
2011,11,21,14,03,1006.06
2011,11,21,14,04,1006.03
2011,11,21,14,05,1005.93
2011,11,21,14,06,1005.89
2011,11,21,14,07,1005.83
2011,11,21,14,08,1005.76
2011,11,21,14,09,1005.66
2011,11,21,14,10,1005.53
2011,11,21,14,11,1005.52
2011,11,21,14,12,1005.45
2011,11,21,14,13,1005.35
2011,11,21,14,14,1005.32
2011,11,21,14,15,1005.39
2011,11,21,14,16,1005.39
2011,11,21,14,17,1005.35
2011,11,21,14,18,1005.35
2011,11,21,14,19,1005.28
2011,11,21,14,20,1005.28
2011,11,21,14,21,1005.28
2011,11,21,14,22,1005.35
2011,11,21,14,23,1005.39
2011,11,21,14,24,1005.35
2011,11,21,14,25,1005.35
2011,11,21,14,26,1005.28
2011,11,21,14,27,1005.28
2011,11,21,14,28,1005.32
2011,11,21,14,29,1005.28
2011,11,21,14,30,1005.35
2011,11,21,14,31,1005.32
2011,11,21,14,32,1005.32
2011,11,21,14,33,1005.35
2011,11,21,14,34,1005.28
2011,11,21,14,35,1005.28
2011,11,21,14,36,1005.28
2011,11,21,14,37,1005.22
2011,11,21,14,38,1005.09
2011,11,21,14,39,1004.98
2011,11,21,14,40,1004.95
2011,11,21,14,41,1004.95
2011,11,21,14,42,1004.88
2011,11,21,14,43,1004.84
2011,11,21,14,44,1004.84
2011,11,21,14,45,1004.81
2011,11,21,14,46,1004.71
2011,11,21,14,47,1004.64
2011,11,21,14,48,1004.64
2011,11,21,14,49,1004.57
2011,11,21,14,50,1004.50
2011,11,21,14,51,1004.50
2011,11,21,14,52,1004.54
2011,11,21,14,53,1004.54
2011,11,21,14,54,1004.54
2011,11,21,14,55,1004.50
2011,11,21,14,56,1004.47
2011,11,21,14,57,1004.44
2011,11,21,14,58,1004.47
2011,11,21,14,59,1004.44
2011,11,21,15,00,1004.37
2011,11,21,15,01,1004.34
2011,11,21,15,02,1004.34
2011,11,21,15,03,1004.30
2011,11,21,15,04,1004.23
2011,11,21,15,05,1004.23
2011,11,21,15,06,1004.23
2011,11,21,15,07,1004.20
2011,11,21,15,08,1004.13
2011,11,21,15,09,1004.13
2011,11,21,15,10,1004.17
2011,11,21,15,11,1004.17
2011,11,21,15,12,1004.17
2011,11,21,15,13,1004.17
2011,11,21,15,14,1004.17
2011,11,21,15,15,1004.20
2011,11,21,15,16,1004.23
2011,11,21,15,17,1004.27
2011,11,21,15,18,1004.30
2011,11,21,15,19,1004.27
2011,11,21,15,20,1004.27
2011,11,21,15,21,1004.23
2011,11,21,15,22,1004.17
2011,11,21,15,23,1004.10
2011,11,21,15,24,1004.17
2011,11,21,15,25,1004.13
2011,11,21,15,26,1004.22
2011,11,21,15,27,1004.20
2011,11,21,15,28,1004.20
2011,11,21,15,29,1004.17
2011,11,21,15,30,1004.17
2011,11,21,15,31,1004.13
2011,11,21,15,32,1004.17
2011,11,21,15,33,1004.27
2011,11,21,15,34,1004.34
2011,11,21,15,35,1004.34
2011,11,21,15,36,1004.34
2011,11,21,15,37,1004.43
2011,11,21,15,38,1004.40
2011,11,21,15,39,1004.27
2011,11,21,15,40,1004.20
2011,11,21,15,41,1004.13
2011,11,21,15,42,1004.10
2011,11,21,15,43,1004.13
2011,11,21,15,44,1004.20
2011,11,21,15,45,1004.29
2011,11,21,15,46,1004.27
2011,11,21,15,47,1004.30
2011,11,21,15,48,1004.30
2011,11,21,15,49,1004.34
2011,11,21,15,50,1004.30
2011,11,21,15,51,1004.34
2011,11,21,15,52,1004.37
2011,11,21,15,53,1004.37
2011,11,21,15,54,1004.34
2011,11,21,15,55,1004.30
2011,11,21,15,56,1004.34